SL-19 DEB, 23496

Orbit data source: Space-Track

SL-19 DEB, 23496 is space debris in LEO originally from a launch on Mon, 26 Dec 1994 UTC launched from the Tyuratam Missile And Space Complex (TTMTR). Debris objects in space refer to the collection of defunct objects orbiting the Earth. Examples of debris include non-operational satellites, rocket bodies, and fragments generated from explosions, collisions, or faulty payload assembly.

Loading next visibility...
Identifier
23496, 1994-085U
Orbit
LEO
Country
Flag of CISCIS
Related business
Manufacturer
Unknown
Mission
Spacecraft
Bus & Motor
Unknown
Mass
Unknown
Launch date (UTC)
1994-12-26 (31 years ago)
Launch vehicle
Unknown
Launch site
Tyuratam Missile And Space Complex (TTMTR)
Object type
Payload
Rocket body
Debris
Shape & HBR
Unknown shape, 0.1 m
Radar Cross Section
Medium (>0.1 m² and <1 m²)

Expand to show TLE details & history
Last TLE update: 1 week ago

TLE from 1 week ago
0 SL-19 DEB
1 23496U 94085U   26166.39973999  .00000080  00000-0  31384-2 0  9998
2 23496  64.8277 207.7283 0241966 305.4455  65.7674 11.34191539299072
Epoch: 2026-06-15T09:35Z
TLE epoch observation values (Epoch: 2026-06-15T09:35:37.535Z)
Latitude
12.42333°
Longitude
166.04985°
Altitude
1,911.622 km
Speed
6.969 km/s
True Right ascension
14h 14m 34s
True Declination
12° 21' 41"
Sunlit
Object was in daylight at epoch
Visualization orbit readout
Latitude
Unknown
Longitude
Unknown
Altitude
Unknown
Speed
Unknown
Apparent Right ascension
Unknown
Apparent Declination
Unknown
Sunlit
N/A
Visualization observer readout
Local Sidereal Time
02:18:50
Azimuth
Unknown
Elevation
Unknown
Doppler factor
Unknown
Orbital elements
Apogee altitude
2,190.9 km
Perigee altitude
1,786.013 km
Semi-major axis
8,366.593 km
Eccentricity
0.0242
Inclination
64.8277°
RAAN
207.7283°
Arg. of periapsis
305.4455°
True anomaly
68.32673°
Mean anomaly
65.7674°
Eccentric anomaly
67.04397°
Mean motion
2.83609 °/min
Orbital period
126.94 mins
BSTAR
0.0031384
Loading maneuver chart data...
Computing Atmospheric mass density...
Loading historical data...
Loading historical data...
Loading historical data...
Loading historical data...
Loading historical data...
Loading historical data...
Loading historical data...

Documentation

Showing up to 5 results
|